This is the latest recevied weather packets stored in our database for station/object WD7OO. If no packets are shown the sender has not sent any weather packets the latest 10 day(s).
| Time | Temp. | Humidity | Pressure | Rain* | Wind** | Luminosity | Snow |
|---|---|---|---|---|---|---|---|
| 1777912637 | 22.78° C | 44% | 1003.5 hPa | 0 mm | - | 712 W/m² | - |
| 1777912333 | 22.78° C | 45% | 1003.6 hPa | 0 mm | - | 707 W/m² | - |
| 1777912029 | 22.78° C | 47% | 1003.8 hPa | 0 mm | - | 747 W/m² | - |
| 1777911725 | 22.78° C | 48% | 1003.9 hPa | 0 mm | - | 744 W/m² | - |
| 1777911422 | 22.22° C | 47% | 1003.9 hPa | 0 mm | - | 747 W/m² | - |
| 1777911119 | 22.78° C | 48% | 1003.9 hPa | 0 mm | - | 759 W/m² | - |
| 1777910816 | 22.78° C | 50% | 1004 hPa | 0 mm | - | 757 W/m² | - |
| 1777910513 | 22.78° C | 48% | 1004 hPa | 0 mm | - | 720 W/m² | - |
| 1777910209 | 22.78° C | 52% | 1004.1 hPa | 0 mm | - | 703 W/m² | - |
| 1777909907 | 22.22° C | 48% | 1004 hPa | 0 mm | - | 715 W/m² | - |
| 1777909604 | 21.67° C | 47% | 1004.1 hPa | 0 mm | - | 733 W/m² | - |
| 1777909301 | 21.67° C | 52% | 1004.1 hPa | 0 mm | - | 701 W/m² | - |
| 1777908999 | 21.67° C | 48% | 1004.5 hPa | 0 mm | - | 689 W/m² | - |
| 1777908697 | 21.11° C | 52% | 1004.4 hPa | 0 mm | - | 716 W/m² | - |
| 1777908393 | 21.67° C | 50% | 1004.3 hPa | 0 mm | - | 769 W/m² | - |
| 1777908090 | 21.11° C | 53% | 1004.5 hPa | 0 mm | - | 787 W/m² | - |
| 1777907786 | 21.11° C | 50% | 1004.4 hPa | 0 mm | - | 773 W/m² | - |
| 1777907481 | 20.56° C | 53% | 1004.6 hPa | 0 mm | - | 770 W/m² | - |
| 1777907178 | 20° C | 54% | 1004.5 hPa | 0 mm | - | 763 W/m² | - |
| 1777906875 | 20° C | 56% | 1004.9 hPa | 0 mm | - | 794 W/m² | - |
| 1777906573 | 20° C | 55% | 1004.8 hPa | 0 mm | - | 809 W/m² | - |
| 1777906267 | 19.44° C | 56% | 1004.7 hPa | 0 mm | - | 795 W/m² | - |
| 1777905964 | 19.44° C | 57% | 1004.9 hPa | 0 mm | - | 761 W/m² | - |
| 1777905661 | 19.44° C | 58% | 1005 hPa | 0 mm | - | 710 W/m² | - |
| 1777905358 | 18.89° C | 59% | 1004.9 hPa | 0 mm | - | 702 W/m² | - |
* Rain latest hour (hover to see other rain measurements)
** Current wind speed in m/s (hover to see current wind gust speed)